Simultaneous Nadir Overpasses (SNOs) Predictions

Prediction of SNOs between METOP-A and TERRA Satellite Orbit:

Table of predicted SNOs for the next 14.0 days since TLE Epoch: 5/15/2021
Index Date (METOP-A) Time (METOP-A) Lat,Lon (METOP-A) SZA (METOP-A ) Date (TERRA) Time (TERRA) Lat,Lon (TERRA) SZA (TERRA ) Distance(km) Time Diff (sec)
1 05/16/2021 01:28:41 -81.32, 24.28 114.89 05/16/2021 01:29:46 -81.33, 24.24 114.86 1.13 65
2 05/16/2021 02:19:22 81.32,-168.48 65.10 05/16/2021 02:19:13 81.32,-168.39 65.10 1.88 9
3 05/18/2021 21:03:03 -81.32, 90.71 115.52 05/18/2021 21:03:58 -81.34, 90.77 115.47 2.13 55
4 05/18/2021 21:53:44 81.32,-102.08 64.47 05/18/2021 21:53:25 81.32,-101.89 64.48 3.16 19
5 05/21/2021 16:37:25 -81.33, 156.74 116.14 05/21/2021 16:38:10 -81.32, 156.87 116.11 2.62 45
6 05/21/2021 17:28:04 81.31, -35.31 63.92 05/21/2021 17:27:36 81.32, -35.44 63.90 2.60 28
7 05/24/2021 12:11:47 -81.33,-136.86 116.68 05/24/2021 12:12:22 -81.32,-136.69 116.65 3.17 35
8 05/24/2021 13:02:26 81.31, 31.06 63.38 05/24/2021 13:01:48 81.32, 30.97 63.35 2.02 38
9 05/27/2021 07:46:08 -81.31, -70.10 117.14 05/27/2021 07:46:34 -81.31, -70.29 117.15 3.15 26



Historial Predications of SNOs between METOP-A and TERRA
